When you browse on this site, cookies collect data to enhance your experience and personalize the content and advertising you see.
Visit our Privacy Policy to learn more. By continuing to use the site, you agree to this use of cookies and data.

Previsão horária em Aba

Hoje, 21 Setembro, Segunda-feira

Tempo Temperatura Precipitação Vento Pressão Humidade
00:00 +16°C° 0 mm 2 m/s 754 mmHg 49%
01:00 +15°C° 0 mm 2 m/s 754 mmHg 51%
02:00 +15°C° 0 mm 2 m/s 754 mmHg 52%
03:00 +15°C° 0 mm 2 m/s 754 mmHg 52%
04:00 +14°C° 0 mm 2 m/s 754 mmHg 52%
05:00 +14°C° 0 mm 3 m/s 754 mmHg 49%
06:00 +16°C° 0 mm 3 m/s 755 mmHg 46%
07:00 +16°C° 0 mm 3 m/s 755 mmHg 44%
08:00 +19°C° 0 mm 4 m/s 755 mmHg 37%
09:00 +22°C° 0 mm 5 m/s 755 mmHg 31%
10:00 +26°C° 0 mm 6 m/s 755 mmHg 24%
11:00 +27°C° 0 mm 6 m/s 755 mmHg 24%
12:00 +28°C° 0 mm 5 m/s 754 mmHg 23%
13:00 +29°C° 0 mm 5 m/s 754 mmHg 22%
14:00 +29°C° 0 mm 5 m/s 754 mmHg 22%
15:00 +29°C° 0 mm 4 m/s 753 mmHg 21%
16:00 +29°C° 0 mm 4 m/s 753 mmHg 21%
17:00 +26°C° 0 mm 4 m/s 753 mmHg 25%
18:00 +24°C° 0 mm 3 m/s 753 mmHg 30%
19:00 +21°C° 0 mm 3 m/s 753 mmHg 34%
20:00 +20°C° 0 mm 3 m/s 753 mmHg 38%
21:00 +19°C° 0 mm 3 m/s 753 mmHg 41%
22:00 +18°C° 0 mm 3 m/s 753 mmHg 45%
23:00 +17°C° 0 mm 3 m/s 753 mmHg 46%

Amanhã, 22 Setembro, Terça-feira

Tempo Temperatura Precipitação Vento Pressão Humidade
00:00 +17°C° 0 mm 3 m/s 753 mmHg 48%
01:00 +16°C° 0 mm 3 m/s 753 mmHg 50%
02:00 +16°C° 0 mm 3 m/s 753 mmHg 51%
03:00 +14°C° 0 mm 3 m/s 753 mmHg 53%
04:00 +14°C° 0 mm 3 m/s 753 mmHg 55%
05:00 +16°C° 0 mm 3 m/s 753 mmHg 53%
06:00 +16°C° 0 mm 3 m/s 753 mmHg 52%
07:00 +17°C° 0 mm 3 m/s 753 mmHg 51%
08:00 +20°C° 0 mm 4 m/s 753 mmHg 45%
09:00 +23°C° 0 mm 5 m/s 753 mmHg 39%
10:00 +26°C° 0 mm 5 m/s 753 mmHg 33%
11:00 +28°C° 0 mm 5 m/s 752 mmHg 30%
12:00 +29°C° 0 mm 5 m/s 752 mmHg 28%
13:00 +30°C° 0 mm 5 m/s 751 mmHg 25%
14:00 +30°C° 0 mm 5 m/s 751 mmHg 25%
15:00 +30°C° 0 mm 4 m/s 750 mmHg 26%
16:00 +30°C° 0 mm 4 m/s 750 mmHg 26%
17:00 +28°C° 0 mm 4 m/s 750 mmHg 30%
18:00 +26°C° 0 mm 3 m/s 750 mmHg 35%
19:00 +24°C° 0 mm 3 m/s 750 mmHg 39%
20:00 +22°C° 0 mm 3 m/s 750 mmHg 41%
21:00 +21°C° 0 mm 3 m/s 750 mmHg 43%
22:00 +21°C° 0 mm 3 m/s 749 mmHg 45%
23:00 +20°C° 0 mm 3 m/s 749 mmHg 51%

Depois de amanhã, 23 Setembro, Quarta-feira

Tempo Temperatura Precipitação Vento Pressão Humidade
00:00 +20°C° 0 mm 2 m/s 749 mmHg 56%
01:00 +20°C° 0 mm 1 m/s 749 mmHg 61%
02:00 +20°C° 0 mm 1 m/s 749 mmHg 62%
03:00 +20°C° 0 mm 2 m/s 749 mmHg 64%
04:00 +20°C° 0 mm 2 m/s 748 mmHg 66%
05:00 +20°C° 0 mm 2 m/s 749 mmHg 67%
06:00 +20°C° 0 mm 2 m/s 749 mmHg 68%
07:00 +20°C° 0 mm 2 m/s 749 mmHg 68%
08:00 +23°C° 0 mm 2 m/s 749 mmHg 62%
09:00 +25°C° 0 mm 3 m/s 748 mmHg 55%
10:00 +27°C° 0 mm 3 m/s 748 mmHg 48%
11:00 +28°C° 0 mm 3 m/s 748 mmHg 45%
12:00 +29°C° 0 mm 4 m/s 748 mmHg 42%
13:00 +29°C° 0 mm 4 m/s 747 mmHg 39%
14:00 +29°C° 0 mm 4 m/s 747 mmHg 40%
15:00 +29°C° 0 mm 4 m/s 747 mmHg 40%
16:00 +28°C° 0 mm 4 m/s 746 mmHg 41%
17:00 +26°C° 0.4 mm 3 m/s 747 mmHg 50%
18:00 +24°C° 0.4 mm 3 m/s 747 mmHg 58%
19:00 +21°C° 0.4 mm 2 m/s 747 mmHg 66%
20:00 +20°C° 0.3 mm 2 m/s 747 mmHg 70%
21:00 +20°C° 0.3 mm 2 m/s 747 mmHg 73%
22:00 +19°C° 0.3 mm 2 m/s 747 mmHg 76%
23:00 +19°C° 0 mm 2 m/s 748 mmHg 80%

24 Setembro, Quinta-feira

Tempo Temperatura Precipitação Vento Pressão Humidade
00:00 +18°C° 0 mm 2 m/s 748 mmHg 83%
01:00 +17°C° 0 mm 2 m/s 748 mmHg 86%
02:00 +17°C° 0 mm 2 m/s 748 mmHg 87%
03:00 +16°C° 0 mm 2 m/s 748 mmHg 88%
04:00 +16°C° 0 mm 2 m/s 748 mmHg 89%
05:00 +17°C° 0 mm 2 m/s 748 mmHg 87%
06:00 +17°C° 0 mm 2 m/s 748 mmHg 85%
07:00 +18°C° 0 mm 2 m/s 749 mmHg 84%
08:00 +20°C° 0 mm 2 m/s 749 mmHg 76%
09:00 +21°C° 0 mm 2 m/s 749 mmHg 68%
10:00 +24°C° 0 mm 3 m/s 749 mmHg 60%
11:00 +26°C° 0 mm 3 m/s 749 mmHg 55%
12:00 +27°C° 0 mm 3 m/s 749 mmHg 50%
13:00 +28°C° 0 mm 3 m/s 749 mmHg 45%
14:00 +27°C° 0 mm 3 m/s 749 mmHg 45%
15:00 +27°C° 0 mm 2 m/s 749 mmHg 45%
16:00 +27°C° 0 mm 2 m/s 748 mmHg 45%
17:00 +26°C° 0 mm 2 m/s 748 mmHg 51%
18:00 +24°C° 0 mm 1 m/s 749 mmHg 56%
19:00 +20°C° 0 mm 0 m/s 749 mmHg 61%
20:00 +22°C° 0 mm 1 m/s 749 mmHg 62%
21:00 +22°C° 0 mm 1 m/s 749 mmHg 63%
22:00 +20°C° 0 mm 2 m/s 749 mmHg 64%
23:00 +20°C° 0 mm 2 m/s 749 mmHg 69%

25 Setembro, Sexta-feira

Tempo Temperatura Precipitação Vento Pressão Humidade
00:00 +19°C° 0 mm 2 m/s 748 mmHg 73%
01:00 +18°C° 0 mm 3 m/s 748 mmHg 77%
02:00 +18°C° 0 mm 3 m/s 748 mmHg 78%
03:00 +18°C° 0 mm 3 m/s 747 mmHg 79%
04:00 +17°C° 0 mm 3 m/s 747 mmHg 80%
05:00 +18°C° 0 mm 4 m/s 747 mmHg 75%
06:00 +19°C° 0 mm 4 m/s 747 mmHg 71%
07:00 +20°C° 0 mm 4 m/s 746 mmHg 67%
08:00 +22°C° 0 mm 5 m/s 746 mmHg 58%
09:00 +24°C° 0 mm 6 m/s 746 mmHg 49%
10:00 +28°C° 0 mm 7 m/s 746 mmHg 40%
11:00 +28°C° 0 mm 7 m/s 745 mmHg 40%
12:00 +28°C° 0 mm 6 m/s 745 mmHg 40%
13:00 +27°C° 0 mm 6 m/s 744 mmHg 40%
14:00 +26°C° 0.1 mm 6 m/s 743 mmHg 48%
15:00 +23°C° 0.1 mm 6 m/s 743 mmHg 56%
16:00 +21°C° 0.1 mm 6 m/s 742 mmHg 64%
17:00 +21°C° 0.1 mm 5 m/s 742 mmHg 64%
18:00 +21°C° 0.1 mm 5 m/s 742 mmHg 65%
19:00 +21°C° 0.1 mm 5 m/s 742 mmHg 65%
20:00 +20°C° 1.9 mm 5 m/s 742 mmHg 72%
21:00 +17°C° 1.9 mm 5 m/s 742 mmHg 79%
22:00 +16°C° 1.9 mm 5 m/s 742 mmHg 85%
23:00 +15°C° 0.3 mm 5 m/s 742 mmHg 85%

26 Setembro, Sábado

Tempo Temperatura Precipitação Vento Pressão Humidade
00:00 +15°C° 0.3 mm 5 m/s 742 mmHg 85%
01:00 +14°C° 0.3 mm 4 m/s 742 mmHg 85%
02:00 +13°C° 0 mm 4 m/s 742 mmHg 87%
03:00 +13°C° 0 mm 3 m/s 742 mmHg 89%
04:00 +13°C° 0 mm 2 m/s 742 mmHg 91%
05:00 +14°C° 0 mm 2 m/s 742 mmHg 88%
06:00 +14°C° 0 mm 2 m/s 742 mmHg 86%
07:00 +14°C° 0 mm 2 m/s 742 mmHg 83%
08:00 +15°C° 0 mm 2 m/s 742 mmHg 79%
09:00 +17°C° 0 mm 2 m/s 742 mmHg 74%
10:00 +18°C° 0 mm 2 m/s 741 mmHg 70%
11:00 +17°C° 1.4 mm 2 m/s 741 mmHg 77%
12:00 +17°C° 1.4 mm 2 m/s 740 mmHg 84%
13:00 +16°C° 1.4 mm 2 m/s 740 mmHg 92%
14:00 +17°C° 0.4 mm 3 m/s 739 mmHg 92%
15:00 +17°C° 0.4 mm 3 m/s 739 mmHg 93%
16:00 +18°C° 0.4 mm 3 m/s 738 mmHg 93%
17:00 +18°C° 0.1 mm 3 m/s 738 mmHg 93%
18:00 +18°C° 0.1 mm 3 m/s 738 mmHg 94%
19:00 +18°C° 0.1 mm 2 m/s 738 mmHg 94%
20:00 +17°C° 0.8 mm 3 m/s 738 mmHg 93%
21:00 +17°C° 0.8 mm 4 m/s 739 mmHg 92%
22:00 +16°C° 0.8 mm 5 m/s 739 mmHg 91%
23:00 +14°C° 0.4 mm 6 m/s 740 mmHg 87%
Mostrar mais